Home   Weather   Witzenhausen   Past weeks

Flag for Germany Past Weather in Witzenhausen, Hesse, Germany — Yesterday and Last 2 Weeks

Now
25 °F

Ice fog.


Feels Like: 16 °F
Forecast: 19 / 30 °F
Wind: 8 mph from Southeast

Location: Kassel / Calden

Current Time: Dec 6, 2016 at 10:57:05 pm

Latest Report: Dec 6, 2016 at 7:50 pm


Visibility: 2 mi

Pressure: 30.51 "Hg

Humidity: 100%

Dew Point: 25 °F

Location of WitzenhausenLocation

Past Weather in Witzenhausen — Graph

°F

Witzenhausen Temperature Yesterday

Maximum temperature yesterday: 32 °F (at 1:50 pm)
Minimum temperature yesterday: 19 °F (at 6:20 am)
Average temperature yesterday: 26 °F

High & Low Weather Summary for the Past Weeks

 TemperatureHumidityPressure
High54 °F (Nov 22, 10:20 am)100% (Nov 23, 7:20 am)30.57 "Hg (Nov 23, 7:20 am)
Low16 °F (Dec 4, 7:20 am)17% (Dec 3, 10:20 am)29.62 "Hg (Nov 21, 7:20 pm)
Average35 °F89%30.23 "Hg
* Reported Nov 21 7:20 pm — Dec 6 7:50 pm, Witzenhausen, Weather by CustomWeather, © 2016

Note: Actual official high and low records may vary slightly from our data, if they occured in-between our weather recording intervals... More about our weather records

Advertising

Witzenhausen Weather History for the Previous 24 Hours

Scroll right to see more
 ConditionsComfort  
Time TempWeatherWind HumidityBarometerVisibility
7:50 pm
Tue, Dec 6
25 °FIce fog.8 mph100%30.51 "Hg2 mi
6:50 pm25 °FIce fog.7 mph100%30.48 "Hg0 mi
6:20 pm25 °FIce fog.6 mph100%30.51 "Hg0 mi
5:50 pm25 °FIce fog.6 mph100%30.51 "Hg0 mi
5:20 pm25 °FIce fog.6 mph100%30.48 "Hg1 mi
4:50 pm25 °FIce fog.6 mph100%30.48 "Hg1 mi
4:20 pm25 °FIce fog.7 mph100%30.48 "Hg1 mi
3:50 pm27 °FIce fog.6 mph100%30.48 "Hg0 mi
3:20 pm27 °FIce fog.7 mph100%30.48 "Hg1 mi
2:50 pm27 °FIce fog.7 mph100%30.48 "Hg1 mi
2:20 pm27 °FIce fog.8 mph100%30.45 "Hg1 mi
1:50 pm27 °FIce fog.5 mph100%30.45 "Hg1 mi
1:20 pm27 °FIce fog.6 mph100%30.45 "Hg1 mi
12:50 pm27 °FIce fog.6 mph100%30.48 "Hg1 mi
12:20 pm27 °FIce fog.6 mph100%30.45 "Hg1 mi
11:50 am27 °FIce fog.6 mph100%30.45 "Hg0 mi
11:20 am27 °FIce fog.5 mph100%30.45 "Hg0 mi
11:01 am27 °FIce fog.5 mph100%30.45 "Hg1 mi
10:20 am27 °FIce fog.5 mph100%30.45 "Hg1 mi
9:50 am27 °FLow clouds.2 mph93%30.45 "Hg1 mi
9:20 am25 °FIce fog.2 mph100%30.45 "Hg1 mi
8:50 am25 °FIce fog.3 mph100%30.42 "Hg1 mi
8:20 am25 °FIce fog.3 mph100%30.42 "Hg1 mi
7:50 am25 °FIce fog.5 mph100%30.42 "Hg1 mi
7:20 am25 °FIce fog.5 mph100%30.42 "Hg1 mi
Weather by CustomWeather, © 2016

See weather overviewHow to use our weather pages